"Sample Date","Sample Time","Sample Value","Units","Flow Rate","Sample Interval","Number Channels","Micron Size 0","Counts/Channel 0","Micron Size 1","Counts/Channel 1","Micron Size 2","Counts/Channel 2","Micron Size 3","Counts/Channel 3","Micron Size 4","Counts/Channel 4","Micron Size 5","Counts/Channel 5","Micron Size 6","Counts/Channel 6","Micron Size 7","Counts/Channel 7","Micron Size 8","Counts/Channel 8","Micron Size 9","Counts/Channel 9","Micron Size 10","Counts/Channel 10","Micron Size 11","Counts/Channel 11","Micron Size 12","Counts/Channel 12","Micron Size 13","Counts/Channel 13","Micron Size 14","Counts/Channel 14","Micron Size 15","Counts/Channel 15","Micron Size 16","Counts/Channel 16","Micron Size 17","Counts/Channel 17","Micron Size 18","Counts/Channel 18","Micron Size 19","Counts/Channel 19","Micron Size 20","Counts/Channel 20","Micron Size 21","Counts/Channel 21","Micron Size 22","Counts/Channel 22","Micron Size 23","Counts/Channel 23","Micron Size 24","Counts/Channel 24","Micron Size 25","Counts/Channel 25","Micron Size 26","Counts/Channel 26","Micron Size 27","Counts/Channel 27","Micron Size 28","Counts/Channel 28","Micron Size 29","Counts/Channel 29","Micron Size 30","Counts/Channel 30","Micron Size 31","Counts/Channel 31"
"04/04/08","11:00:04",127216.000,"cc",28302.422,6.00,6,0.100,109378.000,0.200,12084.000,0.300,2682.000,0.500,2316.000,1.000,756.000,5.000,0
"04/04/08","11:00:10",71291.000,"cc",28270.906,6.00,6,0.100,60377.000,0.200,6491.000,0.300,1983.000,0.500,1820.000,1.000,620.000,5.000,0
"04/04/08","11:00:16",89802.000,"cc",28288.729,6.00,6,0.100,77070.000,0.200,8203.000,0.300,1923.000,0.500,1880.000,1.000,726.000,5.000,0
"04/04/08","11:00:22",68636.000,"cc",28356.250,6.00,6,0.100,57857.000,0.200,6321.000,0.300,1878.000,0.500,1908.000,1.000,672.000,5.000,0
"04/04/08","11:00:28",75289.000,"cc",28347.887,6.00,6,0.100,63530.000,0.200,6919.000,0.300,2103.000,0.500,2003.000,1.000,734.000,5.000,0
"04/04/08","11:00:34",72057.000,"cc",28313.992,6.00,6,0.100,60537.000,0.200,6923.000,0.300,1998.000,0.500,1909.000,1.000,690.000,5.000,0
"04/04/08","11:00:40",76152.000,"cc",28255.785,6.00,6,0.100,64095.000,0.200,7037.000,0.300,2186.000,0.500,2048.000,1.000,786.000,5.000,0
"04/04/08","11:00:46",48619.000,"cc",28302.576,6.00,6,0.100,38993.000,0.200,4847.000,0.300,2041.000,0.500,1969.000,1.000,769.000,5.000,0
"04/04/08","11:00:52",56025.000,"cc",28386.033,6.00,6,0.100,45475.000,0.200,5631.000,0.300,2117.000,0.500,2042.000,1.000,760.000,5.000,0
"04/04/08","11:00:58",75397.000,"cc",28346.795,6.00,6,0.100,63201.000,0.200,7170.000,0.300,2144.000,0.500,2108.000,1.000,774.000,5.000,0
"04/04/08","11:01:04",66419.000,"cc",28333.309,6.00,6,0.100,55603.000,0.200,6099.000,0.300,2081.000,0.500,1935.000,1.000,701.000,5.000,0
"04/04/08","11:01:10",68841.000,"cc",28233.051,6.00,6,0.100,57333.000,0.200,6462.000,0.300,2186.000,0.500,2097.000,1.000,763.000,5.000,0
"04/04/08","11:01:16",84654.000,"cc",28345.213,6.00,6,0.100,70981.000,0.200,8120.000,0.300,2461.000,0.500,2284.000,1.000,808.000,5.000,0
"04/04/08","11:01:22",76871.000,"cc",28306.725,6.00,6,0.100,64334.000,0.200,7348.000,0.300,2240.000,0.500,2135.000,1.000,814.000,5.000,0
"04/04/08","11:01:28",71870.000,"cc",28317.242,6.00,6,0.100,59933.000,0.200,6862.000,0.300,2258.000,0.500,2057.000,1.000,760.000,5.000,0
"04/04/08","11:01:34",116784.000,"cc",28279.926,6.00,6,0.100,100770.000,0.200,10740.000,0.300,2381.000,0.500,2106.000,1.000,787.000,5.000,0
"04/04/08","11:01:40",163717.000,"cc",28345.078,6.00,6,0.100,143830.000,0.200,14802.000,0.300,2361.000,0.500,2007.000,1.000,717.000,5.000,0
"04/04/08","11:01:46",160538.000,"cc",28334.752,6.00,6,0.100,140472.000,0.200,14833.000,0.300,2454.000,0.500,2061.000,1.000,718.000,5.000,0
"04/04/08","11:01:52",194360.000,"cc",28320.865,6.00,6,0.100,171496.000,0.200,17729.000,0.300,2496.000,0.500,1980.000,1.000,659.000,5.000,0
"04/04/08","11:01:58",155683.000,"cc",28290.229,6.00,6,0.100,136884.000,0.200,14017.000,0.300,2291.000,0.500,1817.000,1.000,674.000,5.000,0
"04/04/08","11:02:04",109976.000,"cc",28336.080,6.00,6,0.100,95372.000,0.200,9692.000,0.300,2185.000,0.500,1978.000,1.000,749.000,5.000,0
"04/04/08","11:02:10",184530.000,"cc",28284.365,6.00,6,0.100,162063.000,0.200,17027.000,0.300,2653.000,0.500,2057.000,1.000,730.000,5.000,0
"04/04/08","11:02:16",185392.000,"cc",28292.240,6.00,6,0.100,161836.000,0.200,17255.000,0.300,3018.000,0.500,2425.000,1.000,858.000,5.000,0
"04/04/08","11:02:22",158565.000,"cc",28312.182,6.00,6,0.100,139149.000,0.200,14214.000,0.300,2398.000,0.500,2063.000,1.000,741.000,5.000,0
"04/04/08","11:02:28",175191.000,"cc",28362.260,6.00,6,0.100,154833.000,0.200,15485.000,0.300,2312.000,0.500,1859.000,1.000,702.000,5.000,0
"04/04/08","11:02:34",177938.000,"cc",28319.863,6.00,6,0.100,156778.000,0.200,16062.000,0.300,2451.000,0.500,1955.000,1.000,692.000,5.000,0
"04/04/08","11:02:40",144918.000,"cc",28306.082,6.00,6,0.100,126986.000,0.200,12860.000,0.300,2316.000,0.500,2023.000,1.000,733.000,5.000,0
"04/04/08","11:02:46",148645.000,"cc",28294.002,6.00,6,0.100,130135.000,0.200,13351.000,0.300,2410.000,0.500,2057.000,1.000,692.000,5.000,0
"04/04/08","11:02:52",183495.000,"cc",28349.668,6.00,6,0.100,160785.000,0.200,16711.000,0.300,2781.000,0.500,2376.000,1.000,842.000,5.000,0
"04/04/08","11:02:58",156006.000,"cc",28295.738,6.00,6,0.100,136586.000,0.200,14033.000,0.300,2496.000,0.500,2176.000,1.000,715.000,5.000,0
"04/04/08","11:03:04",111060.000,"cc",28347.611,6.00,6,0.100,96587.000,0.200,9718.000,0.300,2158.000,0.500,1906.000,1.000,691.000,5.000,0
"04/04/08","11:03:10",82710.000,"cc",28367.041,6.00,6,0.100,71182.000,0.200,7224.000,0.300,1924.000,0.500,1762.000,1.000,618.000,5.000,0
"04/04/08","11:03:16",72949.000,"cc",28312.846,6.00,6,0.100,61607.000,0.200,6598.000,0.300,2047.000,0.500,1993.000,1.000,704.000,5.000,0
"04/04/08","11:03:22",79948.000,"cc",28285.006,6.00,6,0.100,67577.000,0.200,7405.000,0.300,2138.000,0.500,2061.000,1.000,767.000,5.000,0
"04/04/08","11:03:28",85451.000,"cc",28303.639,6.00,6,0.100,72388.000,0.200,7877.000,0.300,2237.000,0.500,2177.000,1.000,772.000,5.000,0
"04/04/08","11:03:34",77452.000,"cc",28349.510,6.00,6,0.100,65307.000,0.200,7089.000,0.300,2227.000,0.500,2123.000,1.000,706.000,5.000,0
"04/04/08","11:03:40",120649.000,"cc",28293.262,6.00,6,0.100,103458.000,0.200,11119.000,0.300,2657.000,0.500,2492.000,1.000,923.000,5.000,0
"04/04/08","11:03:46",145681.000,"cc",28290.215,6.00,6,0.100,125401.000,0.200,13559.000,0.300,3040.000,0.500,2690.000,1.000,991.000,5.000,0
"04/04/08","11:03:52",128137.000,"cc",28309.961,6.00,6,0.100,110561.000,0.200,11567.000,0.300,2728.000,0.500,2415.000,1.000,866.000,5.000,0
"04/04/08","11:03:58",115569.000,"cc",28327.943,6.00,6,0.100,100173.000,0.200,10198.000,0.300,2296.000,0.500,2134.000,1.000,768.000,5.000,0
"04/04/08","11:04:04",101116.000,"cc",28349.522,6.00,6,0.100,86842.000,0.200,9126.000,0.300,2318.000,0.500,2096.000,1.000,734.000,5.000,0
"04/04/08","11:04:10",64143.000,"cc",28296.238,6.00,6,0.100,53195.000,0.200,6046.000,0.300,2124.000,0.500,2023.000,1.000,755.000,5.000,0
"04/04/08","11:04:16",89874.000,"cc",28307.293,6.00,6,0.100,76050.000,0.200,8415.000,0.300,2392.000,0.500,2213.000,1.000,804.000,5.000,0
"04/04/08","11:04:22",79998.000,"cc",28264.244,6.00,6,0.100,67758.000,0.200,7382.000,0.300,2055.000,0.500,2059.000,1.000,744.000,5.000,0
"04/04/08","11:04:28",113667.000,"cc",28332.635,6.00,6,0.100,97846.000,0.200,10374.000,0.300,2417.000,0.500,2169.000,1.000,861.000,5.000,0
"04/04/08","11:04:34",94240.000,"cc",28308.315,6.00,6,0.100,80902.000,0.200,8313.000,0.300,2135.000,0.500,2089.000,1.000,801.000,5.000,0
"04/04/08","11:04:40",109285.000,"cc",28310.740,6.00,6,0.100,93949.000,0.200,10055.000,0.300,2400.000,0.500,2075.000,1.000,806.000,5.000,0
"04/04/08","11:04:46",118660.000,"cc",28310.947,6.00,6,0.100,102768.000,0.200,10738.000,0.300,2280.000,0.500,2050.000,1.000,824.000,5.000,0
"04/04/08","11:04:52",116457.000,"cc",28344.232,6.00,6,0.100,101131.000,0.200,10393.000,0.300,2225.000,0.500,2007.000,1.000,701.000,5.000,0
"04/04/08","11:04:58",100948.000,"cc",28353.236,6.00,6,0.100,87082.000,0.200,8890.000,0.300,2217.000,0.500,1998.000,1.000,761.000,5.000,0
"04/04/08","11:05:04",103573.000,"cc",28302.145,6.00,6,0.100,89105.000,0.200,9312.000,0.300,2296.000,0.500,2071.000,1.000,789.000,5.000,0
"04/04/08","11:05:10",115924.000,"cc",28249.170,6.00,6,0.100,99038.000,0.200,10872.000,0.300,2648.000,0.500,2462.000,1.000,904.000,5.000,0
"04/04/08","11:05:16",128843.000,"cc",28294.770,6.00,6,0.100,110022.000,0.200,12227.000,0.300,2984.000,0.500,2655.000,1.000,955.000,5.000,0
"04/04/08","11:05:22",99477.000,"cc",28374.086,6.00,6,0.100,85398.000,0.200,9041.000,0.300,2315.000,0.500,1988.000,1.000,735.000,5.000,0
"04/04/08","11:05:28",70568.000,"cc",28360.190,6.00,6,0.100,59956.000,0.200,6246.000,0.300,1885.000,0.500,1794.000,1.000,687.000,5.000,0
"04/04/08","11:05:34",162213.000,"cc",28312.324,6.00,6,0.100,143168.000,0.200,14323.000,0.300,2213.000,0.500,1848.000,1.000,661.000,5.000,0
"04/04/08","11:05:40",227981.000,"cc",28287.895,6.00,6,0.100,201659.000,0.200,21123.000,0.300,2548.000,0.500,1905.000,1.000,746.000,5.000,0
"04/04/08","11:05:46",345009.000,"cc",28313.318,6.00,6,0.100,301799.000,0.200,37297.000,0.300,3201.000,0.500,1980.000,1.000,732.000,5.000,0
"04/04/08","11:05:52",218717.000,"cc",28357.172,6.00,6,0.100,192193.000,0.200,21424.000,0.300,2540.000,0.500,1917.000,1.000,643.000,5.000,0
"04/04/08","11:05:58",112669.000,"cc",28277.897,6.00,6,0.100,98574.000,0.200,9621.000,0.300,1985.000,0.500,1818.000,1.000,671.000,5.000,0
"04/04/08","11:06:04",146049.000,"cc",28308.053,6.00,6,0.100,128392.000,0.200,12765.000,0.300,2211.000,0.500,1996.000,1.000,685.000,5.000,0
"04/04/08","11:06:10",232285.000,"cc",28302.676,6.00,6,0.100,205116.000,0.200,21546.000,0.300,2720.000,0.500,2200.000,1.000,703.000,5.000,0
"04/04/08","11:06:16",135162.000,"cc",28308.893,6.00,6,0.100,118493.000,0.200,11946.000,0.300,2104.000,0.500,1912.000,1.000,707.000,5.000,0
"04/04/08","11:06:22",153244.000,"cc",28354.459,6.00,6,0.100,134665.000,0.200,13460.000,0.300,2373.000,0.500,2009.000,1.000,737.000,5.000,0
"04/04/08","11:06:28",168865.000,"cc",28283.428,6.00,6,0.100,148667.000,0.200,15087.000,0.300,2341.000,0.500,2010.000,1.000,760.000,5.000,0
"04/04/08","11:06:34",153155.000,"cc",28374.342,6.00,6,0.100,134844.000,0.200,13509.000,0.300,2223.000,0.500,1894.000,1.000,685.000,5.000,0
"04/04/08","11:06:40",188367.000,"cc",28313.111,6.00,6,0.100,166338.000,0.200,16825.000,0.300,2462.000,0.500,2074.000,1.000,668.000,5.000,0
"04/04/08","11:06:46",232847.000,"cc",28313.744,6.00,6,0.100,204768.000,0.200,22150.000,0.300,2854.000,0.500,2226.000,1.000,849.000,5.000,0
"04/04/08","11:06:52",223852.000,"cc",28337.330,6.00,6,0.100,198175.000,0.200,20563.000,0.300,2540.000,0.500,1897.000,1.000,677.000,5.000,0
"04/04/08","11:06:58",253579.000,"cc",28334.490,6.00,6,0.100,223514.000,0.200,24478.000,0.300,2751.000,0.500,2102.000,1.000,734.000,5.000,0
"04/04/08","11:07:04",109315.000,"cc",28340.770,6.00,6,0.100,94874.000,0.200,9537.000,0.300,2228.000,0.500,2007.000,1.000,669.000,5.000,0
"04/04/08","11:07:10",105033.000,"cc",28283.231,6.00,6,0.100,90909.000,0.200,9230.000,0.300,2108.000,0.500,2045.000,1.000,741.000,5.000,0
"04/04/08","11:07:16",115377.000,"cc",28287.938,6.00,6,0.100,100251.000,0.200,10119.000,0.300,2199.000,0.500,2060.000,1.000,748.000,5.000,0
"04/04/08","11:07:22",138475.000,"cc",28323.809,6.00,6,0.100,121335.000,0.200,12196.000,0.300,2231.000,0.500,1978.000,1.000,734.000,5.000,1.000
"04/04/08","11:07:28",185429.000,"cc",28334.275,6.00,6,0.100,163858.000,0.200,16682.000,0.300,2324.000,0.500,1908.000,1.000,657.000,5.000,0
"04/04/08","11:07:34",205641.000,"cc",28339.268,6.00,6,0.100,180822.000,0.200,19561.000,0.300,2574.000,0.500,1960.000,1.000,724.000,5.000,0
"04/04/08","11:07:40",194604.000,"cc",28304.014,6.00,6,0.100,171012.000,0.200,18675.000,0.300,2461.000,0.500,1851.000,1.000,605.000,5.000,0
"04/04/08","11:07:46",229211.000,"cc",28300.904,6.00,6,0.100,201556.000,0.200,22254.000,0.300,2695.000,0.500,2041.000,1.000,665.000,5.000,0
"04/04/08","11:07:52",174171.000,"cc",28263.365,6.00,6,0.100,153001.000,0.200,16016.000,0.300,2524.000,0.500,1917.000,1.000,713.000,5.000,0
"04/04/08","11:07:58",169219.000,"cc",28341.133,6.00,6,0.100,148328.000,0.200,15752.000,0.300,2480.000,0.500,1910.000,1.000,749.000,5.000,0
"04/04/08","11:08:04",149049.000,"cc",28365.301,6.00,6,0.100,130803.000,0.200,13859.000,0.300,2036.000,0.500,1734.000,1.000,617.000,5.000,0
"04/04/08","11:08:10",163495.000,"cc",28332.340,6.00,6,0.100,143846.000,0.200,14883.000,0.300,2289.000,0.500,1793.000,1.000,684.000,5.000,0
"04/04/08","11:08:16",217277.000,"cc",28308.981,6.00,6,0.100,190536.000,0.200,20745.000,0.300,3029.000,0.500,2215.000,1.000,752.000,5.000,0
"04/04/08","11:08:22",193161.000,"cc",28312.152,6.00,6,0.100,159526.000,0.200,28083.000,0.300,2999.000,0.500,1867.000,1.000,686.000,5.000,0
"04/04/08","11:08:28",230159.000,"cc",28305.182,6.00,6,0.100,201548.000,0.200,23305.000,0.300,2687.000,0.500,1926.000,1.000,693.000,5.000,0
"04/04/08","11:08:34",175466.000,"cc",28310.904,6.00,6,0.100,144737.000,0.200,25335.000,0.300,2754.000,0.500,1928.000,1.000,712.000,5.000,0
"04/04/08","11:08:40",175736.000,"cc",28279.145,6.00,6,0.100,155564.000,0.200,15674.000,0.300,2155.000,0.500,1720.000,1.000,623.000,5.000,0
"04/04/08","11:08:46",234362.000,"cc",28328.023,6.00,6,0.100,170561.000,0.200,57103.000,0.300,4119.000,0.500,1938.000,1.000,641.000,5.000,0
"04/04/08","11:08:52",305636.000,"cc",28361.277,6.00,6,0.100,242281.000,0.200,56723.000,0.300,4097.000,0.500,1887.000,1.000,648.000,5.000,0
"04/04/08","11:08:58",341200.000,"cc",28365.008,6.00,6,0.100,298286.000,0.200,37127.000,0.300,3231.000,0.500,1931.000,1.000,625.000,5.000,0
"04/04/08","11:09:04",233370.000,"cc",28293.016,6.00,6,0.100,206588.000,0.200,22006.000,0.300,2416.000,0.500,1746.000,1.000,614.000,5.000,0
"04/04/08","11:09:10",238392.000,"cc",28342.723,6.00,6,0.100,201026.000,0.200,31610.000,0.300,3082.000,0.500,1966.000,1.000,708.000,5.000,0
"04/04/08","11:09:16",137349.000,"cc",28265.789,6.00,6,0.100,120556.000,0.200,12402.000,0.300,2048.000,0.500,1712.000,1.000,631.000,5.000,0
"04/04/08","11:09:22",279481.000,"cc",28340.277,6.00,6,0.100,236227.000,0.200,37605.000,0.300,3149.000,0.500,1844.000,1.000,656.000,5.000,0
"04/04/08","11:09:28",287261.000,"cc",28266.139,6.00,6,0.100,253364.000,0.200,28781.000,0.300,2742.000,0.500,1758.000,1.000,616.000,5.000,0
"04/04/08","11:09:34",267935.000,"cc",28384.389,6.00,6,0.100,237112.000,0.200,25816.000,0.300,2686.000,0.500,1724.000,1.000,597.000,5.000,0
"04/04/08","11:09:40",289238.000,"cc",28324.463,6.00,6,0.100,255621.000,0.200,28520.000,0.300,2703.000,0.500,1756.000,1.000,638.000,5.000,0
"04/04/08","11:09:46",280945.000,"cc",28298.178,6.00,6,0.100,246974.000,0.200,28783.000,0.300,2814.000,0.500,1781.000,1.000,593.000,5.000,0
"04/04/08","11:09:52",126455.000,"cc",28369.766,6.00,6,0.100,111323.000,0.200,10988.000,0.300,1916.000,0.500,1675.000,1.000,553.000,5.000,0
"04/04/08","11:09:58",145527.000,"cc",28320.811,6.00,6,0.100,128204.000,0.200,12771.000,0.300,2177.000,0.500,1738.000,1.000,637.000,5.000,0
"04/04/08","11:10:04",201544.000,"cc",28256.522,6.00,6,0.100,176959.000,0.200,18933.000,0.300,2835.000,0.500,2067.000,1.000,750.000,5.000,0
"04/04/08","11:10:10",260340.000,"cc",28198.789,6.00,6,0.100,217140.000,0.200,37342.000,0.300,3310.000,0.500,1943.000,1.000,605.000,5.000,0
"04/04/08","11:10:16",277665.000,"cc",28336.844,6.00,6,0.100,218386.000,0.200,51750.000,0.300,4409.000,0.500,2377.000,1.000,743.000,5.000,0
"04/04/08","11:10:22",300100.000,"cc",28361.316,6.00,6,0.100,235616.000,0.200,54963.000,0.300,5568.000,0.500,2924.000,1.000,1029.000,5.000,0
"04/04/08","11:10:28",329821.000,"cc",28271.176,6.00,6,0.100,275208.000,0.200,47345.000,0.300,4179.000,0.500,2287.000,1.000,802.000,5.000,0
"04/04/08","11:10:34",309838.000,"cc",28283.258,6.00,6,0.100,271376.000,0.200,32236.000,0.300,3381.000,0.500,2105.000,1.000,740.000,5.000,0
"04/04/08","11:10:40",370451.000,"cc",28313.842,6.00,6,0.100,323540.000,0.200,40989.000,0.300,3328.000,0.500,1910.000,1.000,683.000,5.000,1.000
"04/04/08","11:10:46",333866.000,"cc",28407.299,6.00,6,0.100,293081.000,0.200,35054.000,0.300,3172.000,0.500,1859.000,1.000,700.000,5.000,0
"04/04/08","11:10:52",289562.000,"cc",28299.850,6.00,6,0.100,254272.000,0.200,29430.000,0.300,3120.000,0.500,2016.000,1.000,724.000,5.000,0
"04/04/08","11:10:58",261418.000,"cc",28297.744,6.00,6,0.100,208379.000,0.200,46004.000,0.300,3952.000,0.500,2271.000,1.000,812.000,5.000,0
"04/04/08","11:11:04",295064.000,"cc",28312.022,6.00,6,0.100,236327.000,0.200,51229.000,0.300,4284.000,0.500,2388.000,1.000,836.000,5.000,0
"04/04/08","11:11:10",227233.000,"cc",28350.195,6.00,6,0.100,200564.000,0.200,21562.000,0.300,2480.000,0.500,1947.000,1.000,680.000,5.000,0
"04/04/08","11:11:16",256285.000,"cc",28291.787,6.00,6,0.100,225673.000,0.200,25487.000,0.300,2697.000,0.500,1797.000,1.000,631.000,5.000,0
"04/04/08","11:11:22",231620.000,"cc",28342.992,6.00,6,0.100,204617.000,0.200,21861.000,0.300,2546.000,0.500,1958.000,1.000,638.000,5.000,0
"04/04/08","11:11:28",161104.000,"cc",28280.102,6.00,6,0.100,141518.000,0.200,14803.000,0.300,2272.000,0.500,1843.000,1.000,668.000,5.000,0
"04/04/08","11:11:34",154235.000,"cc",28322.332,6.00,6,0.100,134720.000,0.200,14213.000,0.300,2525.000,0.500,2048.000,1.000,729.000,5.000,0
"04/04/08","11:11:40",139378.000,"cc",28260.049,6.00,6,0.100,122237.000,0.200,12333.000,0.300,2240.000,0.500,1902.000,1.000,666.000,5.000,0
"04/04/08","11:11:46",149023.000,"cc",28367.361,6.00,6,0.100,130688.000,0.200,13495.000,0.300,2287.000,0.500,1867.000,1.000,686.000,5.000,0
"04/04/08","11:11:52",256827.000,"cc",28237.949,6.00,6,0.100,225245.000,0.200,25755.000,0.300,3122.000,0.500,1994.000,1.000,711.000,5.000,0
"04/04/08","11:11:58",173106.000,"cc",28292.818,6.00,6,0.100,151772.000,0.200,16053.000,0.300,2611.000,0.500,2014.000,1.000,656.000,5.000,0
"04/04/08","11:12:04",164239.000,"cc",28340.008,6.00,6,0.100,143937.000,0.200,15563.000,0.300,2309.000,0.500,1787.000,1.000,643.000,5.000,0
"04/04/08","11:12:10",253374.000,"cc",28304.955,6.00,6,0.100,222259.000,0.200,25619.000,0.300,2917.000,0.500,1952.000,1.000,627.000,5.000,0
"04/04/08","11:12:16",99280.000,"cc",28324.736,6.00,6,0.100,86475.000,0.200,8825.000,0.300,1765.000,0.500,1652.000,1.000,563.000,5.000,0
"04/04/08","11:12:22",216030.000,"cc",28313.807,6.00,6,0.100,189516.000,0.200,21465.000,0.300,2581.000,0.500,1843.000,1.000,625.000,5.000,0
"04/04/08","11:12:28",182128.000,"cc",28340.606,6.00,6,0.100,160118.000,0.200,17197.000,0.300,2332.000,0.500,1824.000,1.000,657.000,5.000,0
"04/04/08","11:12:34",154707.000,"cc",28305.791,6.00,6,0.100,135966.000,0.200,14175.000,0.300,2197.000,0.500,1809.000,1.000,560.000,5.000,0
"04/04/08","11:12:40",168069.000,"cc",28296.572,6.00,6,0.100,147207.000,0.200,15967.000,0.300,2405.000,0.500,1859.000,1.000,631.000,5.000,0
"04/04/08","11:12:46",144570.000,"cc",28301.494,6.00,6,0.100,125872.000,0.200,13460.000,0.300,2517.000,0.500,2026.000,1.000,695.000,5.000,0
"04/04/08","11:12:52",131659.000,"cc",28325.367,6.00,6,0.100,114560.000,0.200,12159.000,0.300,2328.000,0.500,1874.000,1.000,738.000,5.000,0
"04/04/08","11:12:58",176372.000,"cc",28323.807,6.00,6,0.100,154493.000,0.200,16551.000,0.300,2550.000,0.500,2029.000,1.000,749.000,5.000,0
"04/04/08","11:13:04",245184.000,"cc",28374.588,6.00,6,0.100,215569.000,0.200,24086.000,0.300,2848.000,0.500,1979.000,1.000,702.000,5.000,0
"04/04/08","11:13:10",191653.000,"cc",28305.023,6.00,6,0.100,168991.000,0.200,17803.000,0.300,2367.000,0.500,1843.000,1.000,649.000,5.000,0
"04/04/08","11:13:16",182201.000,"cc",28231.758,6.00,6,0.100,160746.000,0.200,16570.000,0.300,2376.000,0.500,1844.000,1.000,665.000,5.000,0
"04/04/08","11:13:22",173630.000,"cc",28313.969,6.00,6,0.100,152745.000,0.200,15952.000,0.300,2356.000,0.500,1907.000,1.000,670.000,5.000,0
"04/04/08","11:13:28",163520.000,"cc",28365.596,6.00,6,0.100,143923.000,0.200,14830.000,0.300,2229.000,0.500,1887.000,1.000,651.000,5.000,0
"04/04/08","11:13:34",263819.000,"cc",28350.904,6.00,6,0.100,231213.000,0.200,26609.000,0.300,3045.000,0.500,2184.000,1.000,768.000,5.000,0
"04/04/08","11:13:40",174397.000,"cc",28266.248,6.00,6,0.100,153607.000,0.200,16026.000,0.300,2296.000,0.500,1827.000,1.000,641.000,5.000,0
"04/04/08","11:13:46",209130.000,"cc",28357.734,6.00,6,0.100,184342.000,0.200,19600.000,0.300,2548.000,0.500,1949.000,1.000,691.000,5.000,0
"04/04/08","11:13:52",162020.000,"cc",28321.363,6.00,6,0.100,142858.000,0.200,14460.000,0.300,2222.000,0.500,1839.000,1.000,641.000,5.000,0
"04/04/08","11:13:58",245963.000,"cc",28230.854,6.00,6,0.100,216652.000,0.200,23566.000,0.300,2810.000,0.500,2180.000,1.000,755.000,5.000,0
"04/04/08","11:14:04",162586.000,"cc",28261.147,6.00,6,0.100,142809.000,0.200,14648.000,0.300,2341.000,0.500,2085.000,1.000,703.000,5.000,0
"04/04/08","11:14:10",170083.000,"cc",28350.156,6.00,6,0.100,149338.000,0.200,15423.000,0.300,2506.000,0.500,2038.000,1.000,778.000,5.000,0
"04/04/08","11:14:16",104664.000,"cc",28334.008,6.00,6,0.100,90415.000,0.200,9290.000,0.300,2208.000,0.500,2028.000,1.000,723.000,5.000,0
"04/04/08","11:14:22",96742.000,"cc",28356.879,6.00,6,0.100,81789.000,0.200,9011.000,0.300,2767.000,0.500,2389.000,1.000,786.000,5.000,0
"04/04/08","11:14:28",87777.000,"cc",28307.164,6.00,6,0.100,74215.000,0.200,7992.000,0.300,2471.000,0.500,2301.000,1.000,798.000,5.000,0
"04/04/08","11:14:34",73951.000,"cc",28285.313,6.00,6,0.100,61365.000,0.200,6971.000,0.300,2433.000,0.500,2310.000,1.000,872.000,5.000,0
"04/04/08","11:14:40",79405.000,"cc",28322.078,6.00,6,0.100,66682.000,0.200,7280.000,0.300,2389.000,0.500,2287.000,1.000,767.000,5.000,0
"04/04/08","11:14:46",75022.000,"cc",28282.930,6.00,6,0.100,63187.000,0.200,6594.000,0.300,2240.000,0.500,2205.000,1.000,796.000,5.000,0
"04/04/08","11:14:52",74975.000,"cc",28278.266,6.00,6,0.100,64187.000,0.200,6306.000,0.300,1891.000,0.500,1874.000,1.000,717.000,5.000,0
"04/04/08","11:14:58",98238.000,"cc",28338.354,6.00,6,0.100,86145.000,0.200,7793.000,0.300,1878.000,0.500,1788.000,1.000,634.000,5.000,0
"04/04/08","11:15:04",109898.000,"cc",28370.625,6.00,6,0.100,97179.000,0.200,8512.000,0.300,1771.000,0.500,1781.000,1.000,655.000,5.000,0
"04/04/08","11:15:10",118604.000,"cc",28311.256,6.00,6,0.100,105087.000,0.200,9473.000,0.300,1826.000,0.500,1647.000,1.000,571.000,5.000,0
"04/04/08","11:15:16",168139.000,"cc",28321.707,6.00,6,0.100,150619.000,0.200,13472.000,0.300,1846.000,0.500,1613.000,1.000,588.000,5.000,1.000
"04/04/08","11:15:22",74239.000,"cc",28308.803,6.00,6,0.100,64777.000,0.200,5602.000,0.300,1606.000,0.500,1695.000,1.000,559.000,5.000,0
"04/04/08","11:15:28",114516.000,"cc",28319.236,6.00,6,0.100,101112.000,0.200,9389.000,0.300,1741.000,0.500,1662.000,1.000,612.000,5.000,0
"04/04/08","11:15:34",70964.000,"cc",28291.061,6.00,6,0.100,61378.000,0.200,5887.000,0.300,1596.000,0.500,1535.000,1.000,568.000,5.000,0
"04/04/08","11:15:40",92323.000,"cc",28266.588,6.00,6,0.100,81198.000,0.200,7285.000,0.300,1613.000,0.500,1644.000,1.000,583.000,5.000,0
"04/04/08","11:15:46",106344.000,"cc",28314.969,6.00,6,0.100,94267.000,0.200,8118.000,0.300,1771.000,0.500,1640.000,1.000,548.000,5.000,0
"04/04/08","11:15:52",21741.000,"cc",28342.777,6.00,6,0.100,16049.000,0.200,2183.000,0.300,1363.000,0.500,1605.000,1.000,541.000,5.000,0
"04/04/08","11:15:58",26968.000,"cc",28299.395,6.00,6,0.100,20834.000,0.200,2552.000,0.300,1512.000,0.500,1543.000,1.000,527.000,5.000,0
"04/04/08","11:16:04",24934.000,"cc",28329.662,6.00,6,0.100,19030.000,0.200,2413.000,0.300,1413.000,0.500,1584.000,1.000,494.000,5.000,0
"04/04/08","11:16:10",18225.000,"cc",28330.932,6.00,6,0.100,12980.000,0.200,1901.000,0.300,1333.000,0.500,1511.000,1.000,500.000,5.000,0